Regional Weather Roundup
Issued by NWS Grand Forks, ND

Home | Current Version | Previous Version | Text Only | Print | Product List | Glossary On
Versions: 1 2 3 4 5 6 7 8 9 10 11 12 13 14 15 16 17 18 19 20 21 22 23 24 25 26 27 28 29 30 31 32 33 34 35 36 37 38 39 40 41 42 43 44 45 46 47 48 49 50
000
ASUS43 KFGF 061610
RWRFGF
PRAIRIE TO PINES  WEATHER ROUNDUP
NATIONAL WEATHER SERVICE EASTERN NORTH DAKOTA/GRAND FORKS ND
1000 AM CST SAT FEB 06 2016

 **SATELLITE DATA USED TO AUGMENT SKY COVER AT AUTOMATED STATIONS**
 *****  WEATHER ACROSS EASTERN NORTH DAKOTA  *****

CITY           SKY/WX    TMP DP  RH WIND       PRES   REMARKS
GRAND FORKS    CLOUDY    27  22  81 S13       29.78F WCI  16
GRAND FRKS AFB CLOUDY    27  23  83 S9        29.76F WCI  18
GRAND FRKS NWS   N/A     25 N/A N/A S7          N/A  WCI  17
DEVILS LAKE    CLOUDY    33  26  75 SW12      29.71F WCI  24
FARGO          CLOUDY    29  23  78 S10       29.84F WCI  20
WAHPETON ARPT  MOSUNNY   30  25  80 S10       29.89F WCI  21
$$

 ***** WEATHER ACROSS CENTRAL AND WESTERN NORTH DAKOTA  *****

CITY           SKY/WX    TMP DP  RH WIND       PRES   REMARKS
BISMARCK       CLOUDY    42  26  53 SW8       29.80F
MINOT          CLOUDY    44  26  49 SW14      29.66F
JAMESTOWN      CLOUDY    36  25  64 SW12      29.77F
MINOT AFB      CLOUDY    41  30  63 SW8G18    29.65F
GARRISON         N/A     39  26  59 W17       29.70F
WILLISTON      CLOUDY    40  28  62 SW7       29.71F
DICKINSON      CLOUDY    38  21  50 W16       29.79F
HETTINGER      CLOUDY    38  20  48 W15       29.86F
$$

 *****  OTHER AIRPORT OBSERVATIONS IN OUR AREA  *****

CITY           SKY/WX    TMP DP  RH WIND       PRES   REMARKS
WALHALLA       FAIR      27  27 100 SE7       29.72F WCI  19
GRAFTON AIRPOR FAIR      25  23  93 S14       29.77F WCI  13
VALLEY CITY AR MIX PCPN  32  28  86 SW13      29.80F WCI  22
CANDO          NOT AVBL
CAVALIER APRT  FAIR      25  21  86 S8        29.74F WCI  16
GWINNER          N/A     32  28  86 SW20      29.85F WCI  20
ROLLA          CLOUDY    28  25  86 SW13      29.67S WCI  18
 ***** THE ABOVE OBSERVATIONS ARE NON NWS ARE NOT QUALITY
       CONTROLLED AND MAY MIS-REPORT RAIN FOR SNOW...
$$

  *****  WEATHER ACROSS NORTHERN MINNESOTA  *****

CITY           SKY/WX    TMP DP  RH WIND       PRES   REMARKS
FLAG ISLAND    CLOUDY    19  18  93 SE6       29.83F WCI  11
WARROAD        CLOUDY    21  19  93 E7        29.82F WCI  13
ROSEAU         CLOUDY    25  19  80 S8        29.80F WCI  16
HALLOCK        CLOUDY    25  21  86 S16       29.76F WCI  12
THF RVR FALLS  CLOUDY    27  19  74 S10       29.81F WCI  17
BAUDETTE       CLOUDY    22  17  81 SE7       29.83F WCI  13
WASKISH        CLOUDY    27  21  80 SE7       29.84F WCI  19
CROOKSTON      CLOUDY    27  23  86 S15       29.82F WCI  15
STEPHEN NDAWN    N/A     25  21  86 S12         N/A  WCI  14
GREENBUSH NDAW   N/A     25  21  86 S9          N/A  WCI  15
$$
  *****  WEATHER ACROSS CENTRAL AND WEST MINNESOTA  *****

CITY           SKY/WX    TMP DP  RH WIND       PRES   REMARKS
FOSSTON        CLOUDY    28  21  74 S17       29.83F WCI  16
BEMIDJI        CLOUDY    24  20  86 SE8       29.85F WCI  15
PARK RAPIDS    CLOUDY    27  22  81 S8        29.87F WCI  19
ELBOW LAKE     FAIR      26  26  96 S12       29.92F WCI  16
WADENA         CLOUDY    27  21  80 S10       29.89F WCI  17
DETROIT LAKES  MOSUNNY   30  27  86 S12       29.86F WCI  21
MOORHEAD       MOSUNNY   28  23  80 S13       29.86F WCI  18
FERGUS FALLS   CLOUDY    28  25  86 S12       29.93F WCI  18
MORRIS MN      CLOUDY    27  27 100 S10       29.93F WCI  17
STAPLES        CLOUDY    25  21  86 S10       29.91F WCI  15
$$
  *****  WEATHER ELSEWHERE ACROSS MINNESOTA  *****

CITY           SKY/WX    TMP DP  RH WIND       PRES   REMARKS
DULUTH         CLOUDY    22  18  85 SW12      29.96F WCI  10
INTRNTL FALLS  CLOUDY    22  17  81 SE6       29.88F WCI  14
ELY            CLOUDY    19  18  93 CALM      29.94S
CLOQUET        CLOUDY    23  19  86 S10       29.97F WCI  12
WHEATON        CLOUDY    36  28  75 S15       29.91F
BRAINERD       CLOUDY    26  22  84 S13       29.94F WCI  15
HIBBING        CLOUDY    20  18  92 S6        29.93F WCI  12
ALEXANDRIA     FLURRIES  27  22  81 S14       29.93F WCI  16
SAINT CLOUD    CLOUDY    24  20  84 S12       30.01S WCI  13
MINNEAPOLIS    CLOUDY    28  24  85 S8        30.09F WCI  20
$$

  *****  WEATHER ACROSS SOUTH DAKOTA  *****

CITY           SKY/WX    TMP DP  RH WIND       PRES   REMARKS
SIOUX FALLS    PTSUNNY   25  22  88 SW9       30.07F WCI  15
BROOKINGS      MOSUNNY   27  25  92 S10       30.00F WCI  17
WATERTOWN      CLOUDY    30  23  75 SW12      29.95F WCI  20
HURON          MOSUNNY   29  23  78 S12       29.99F WCI  19
SISSETON         N/A     35  24  64 W21G30    29.87F WCI  24
ABERDEEN       CLOUDY    32  27  81 S13       29.91F WCI  22
MITCHELL       CLOUDY    30  24  78 SW12      30.04F WCI  20
PIERRE         MOSUNNY   33  22  63 SW15      29.96F WCI  23
MOBRIDGE       CLOUDY    36  26  67 S8        29.86F
RAPID CITY     CLOUDY    40  27  59 S6        29.98F
$$

  *****  SOME WEATHER IN NEARBY STATES *****

CITY           SKY/WX    TMP DP  RH WIND       PRES   REMARKS
GLASGOW MT     CLOUDY    41  25  53 W5        29.73F
GREAT FALLS MT CLOUDY    36  26  67 W24G32    29.93R
CHEYENNE WY    CLOUDY    35  17  47 NW23G37   30.12S WCI  23
SCOTTSBLUFF NE CLOUDY    28  18  66 N6        30.15F WCI  22
OMAHA NE       FOG       26  25  96 SE8       30.24S VSB 3/4 WCI  18
DES MOINES IA  CLOUDY    30  27  88 W5        30.24S FOG
DAVENPORT IA   SUNNY     34  23  64 SW10      30.25S
CHICAGO IL     MOSUNNY   32  23  69 SW12      30.25F WCI  23
EAU CLAIRE WI  CLOUDY    27  20  75 SW9       30.12R WCI  18
LA CROSSE WI   CLOUDY    29  23  78 SW9       30.18R WCI  20
$$

  *****  SOME NATIONAL WEATHER *****

CITY           SKY/WX    TMP DP  RH WIND       PRES   REMARKS
LA GUARDIA NY  PTSUNNY   38  18  44 SW7       30.42F
RALEIGH NC     PTSUNNY   41  20  43 E5        30.46S
ATLANTA GA     CLOUDY    43  19  38 E5        30.38S
NEW ORLEANS LA PTSUNNY   55  24  30 NE10      30.36R
OKLAHOMA CITY  MOSUNNY   40  30  67 N6        30.38R
ALBUQUERQUE NM CLOUDY    30  14  51 CALM      30.51R
SALT LAKE CITY MOSUNNY   27  19  72 SE10      30.54R WCI  17
LOS ANGELES CA SUNNY     60  24  25 NE7       30.27R
BOISE ID       CLOUDY    35  27  72 SE16      30.41S
SEATTLE WA     CLOUDY    43  39  86 S12       30.41R
$$

*** WEATHER ACROSS MANITOBA...SASKATCHEWAN AND ONTARIO ***
                ***ONTARIO***

CITY           SKY/WX    TMP DP  RH WIND       PRES   REMARKS
GERALDTON      FLURRIES   3  -4  72 N5        30.00R WCI  -6
THUNDER BAY    CLOUDY    21  16  79 CALM      30.01F
SIOUX LOOKOUT  FLURRIES  10   7  85 SE6       29.93S WCI   1
TORONTO        PTSUNNY   34  23  64 W14G20    30.20S WCI  24
BIG TROUT LK   SUNNY    -27 -35  68 S2        30.11
PICKLE LAKE    MOSUNNY   -9 -18  64 NE6       30.00S WCI -23
DRYDEN         CLOUDY    16  14  93 E5        29.90S WCI   9
KENORA         FLURRIES  18  16  93 SE12      29.84F WCI   5
$$
                *** MANITOBA***

CITY           SKY/WX    TMP DP  RH WIND       PRES   REMARKS
BRANDON        CLOUDY    25  21  86 S3        29.62F
DAUPHIN        CLOUDY    21  19  93 SE7       29.59F WCI  13
ISLAND LAKE    PTSUNNY  -17 -22  76 SE10      29.97F WCI -37
PILOT MOUND      N/A     27  23  86 S9          N/A  WCI  17
THE PAS        FLURRIES  10   7  85 SE13      29.60F WCI  -5
THOMPSON       CRYSTALS -13 -20  70 E6        29.89F WCI -27
WINNIPEG       CLOUDY    23  19  86 SE13      29.75F WCI  11
LYNN LAKE      LGT SNOW  -9 -13  84 SE10G20   29.67F WCI -28
GILLAM         MOSUNNY  -24 -31  69 SE5       30.07F WCI -38
$$
                ***SASKATCHEWAN***

CITY           SKY/WX    TMP DP  RH WIND       PRES   REMARKS
ESTEVAN        NOT AVBL
KINDERSLEY     LGT RAIN  37  30  75 W21G38    29.47R
LLOYDMINSTER   MOCLDY    39  27  60 W17G29    29.40R
PRINCE ALBERT  MOCLDY    18  16  93 E9        29.36F WCI   6
REGINA         PTSUNNY   39  28  65 SW16      29.51F
YORKTON        FLURRIES  30  27  86 S10       29.48F WCI  21
N. BATTLEFORD  MOCLDY    37  28  70 W16       29.39S
LA RONGE       CLOUDY    14  10  85 E8        29.40F WCI   3
SASKATOON      CLOUDY    34  28  80 SW16      29.41F WCI  23
SWIFT CURRENT  SUNNY     45  28  53 W32G41    29.53F
$$
NOTE: THESE ARE AUTOMATED STATIONS WITH LIMITED QUALITY CONTROL
      "FAIR" INDICATES FEW OR NO CLOUDS BELOW 12,000 FEET WITH NO
      SIGNIFICANT WEATHER AND/OR OBSTRUCTIONS TO VISIBILITY.
      SKY/WX - SKY CONDITION AND SIGNIFICANT WEATHER.
      TMP - AIR TEMPERATURE.    DP   - DEWPOINT TEMPERATURE.
      RH  - RELATIVE HUMIDITY.  PRES - PRESSURE.
      HX  - HEAT INDEX.         WCI  - WIND CHILL INDEX.
$



USA.gov is the U.S. government's official web portal to all federal, state and local government web resources and services.